Route Details

Aircraft Information
Group: North America Fleet
Types: B738, B752, B762, B763
Route Data
Distance: 242nm
Duration: 1h 14m
Origin METAR: KMSP 010453Z 24007KT 10SM BKN100 M13/M19 A3017 RMK AO2 SLP237 T11281194
Dest. METAR: KRFD 010454Z 19004KT 10SM CLR M18/M22 A3037 RMK AO2 SLP303 T11831222
Freight Data
(for Feb 1, 2023)
Load Factor:
39%
Manifested Cargo: 22,864lbs
Financial History
Total Freight: 359,308lbs
Average Load: 0lbs/flt
Fuel Used: 53,842lbs
Avg. Fuel Used: 0lbs/flt
Fuel Expense: $61,957
Avg. Fuel Expense: $0
Avg. Fuel Cost: $0/lbs
Total Gross Income: $467,050
Pilot Pay: $1,820
Total Expenses: $51,937
Total Revenue: $351,442
Average Revenue: $0

Capitol Logistics 376




KMSP
Minneapolis-St Paul International Airport
Minneapolis, Minnesota
KRFD
Chicago/Rockford International Airport
Rockford, Illinois

Activity Log

Date Flight Route Aircraft Duration
04/30/2021 CPX411 ZMBRO7 ODI J30 COTON RFD B738 1h 01m
12/23/2019 CPX411 N0416F350 ZMBRO7 ODI JVL V128 RFD B738 0h 49m
11/20/2019 CPX411 N0362F270 ZMBRO7 ODI JVL V128 RFD B738 1h 08m
11/16/2019 CPX411 N0323A110 ZMBRO7 ODI JVL V128 RFD B738 0h 57m
10/14/2019 CPX411 ZMBRO7 ODI J30 COTON RFD B738 0h 51m
08/26/2019 CPX411 ZMBRO7 ODI J30 COTON RFD B738 0h 55m
08/07/2019 CPX411 ZMBRO7 ODI J30 COTON RFD B738 1h 07m
07/22/2019 CPX411 ZMBRO7 ODI J30 COTON RFD B738 0h 52m
06/26/2019 CPX411 ZMBRO7 ODI J30 COTON RFD B738 0h 57m
03/09/2019 CPX411 ZMBRO7 ODI J30 COTON RFD B752 0h 54m